Regional Weather Roundup
Issued by NWS

Home | Current Version | Previous Version | Text Only | Print | Product List | Glossary Off
Versions: 1 2 3 4 5 6 7 8 9 10 11 12 13 14 15 16 17 18 19 20 21 22 23 24 25 26 27 28 29 30 31 32 33 34 35 36 37 38 39 40 41 42 43 44 45 46 47 48 49 50

000
ASUS43 KLOT 291600
RWRIL

ILLINOIS REGIONAL WEATHER ROUNDUP
NATIONAL WEATHER SERVICE CHICAGO/ROMEOVILLE IL
1100 AM CDT SAT AUG 29 2015

NOTE: "FAIR" INDICATES FEW OR NO CLOUDS BELOW 12,000 FEET WITH NO
SIGNIFICANT WEATHER AND/OR OBSTRUCTIONS TO VISIBILITY.

* THESE STATIONS ARE NOT UNDER NWS QUALITY CONTROL. THEY ALSO MAY NOT
  REPORT WEATHER SUCH AS PRECIPITATION OR FOG.

ILZ001-002-007-009-015-016-024-291700-
NORTHWEST ILLINOIS

CITY           SKY/WX    TMP DP  RH WIND       PRES   REMARKS
MOLINE         CLOUDY    70  65  84 CALM      30.01R
STERLING*      CLOUDY    66  64  94 E3        30.00S
$$

ILZ003-004-008-010-011-017-018-291700-
NORTH CENTRAL ILLINOIS

CITY           SKY/WX    TMP DP  RH WIND       PRES   REMARKS
ROCKFORD       CLOUDY    65  62  90 SE5       30.05R FOG
$$

ILZ005-006-012>014-019>023-291700-
NORTHEAST ILLINOIS

CITY           SKY/WX    TMP DP  RH WIND       PRES   REMARKS
CHICAGO-OHARE  CLOUDY    67  64  90 E6        30.04R
CHICAGO-MIDWAY CLOUDY    70  63  78 SE6       30.04S
AURORA         CLOUDY    68  64  87 SE3       30.05R FOG
WAUKEGAN       LGT RAIN  62  62 100 E6        30.04S FOG
DUPAGE AIRPORT LGT RAIN  66  63  90 E5        30.04R FOG
WHEELING       LGT RAIN  65  63  93 SE8       30.05S FOG
NORTHERLY ISL    N/A     65  62  90 SE2         N/A
$$

LMZ740>746-291700-
SOUTHERN LAKE MICHIGAN

STATION/POSITION SKY/WX   TEMP    WIND        PRES    VSBY  WAVE
                          AIR SEA DIR/SP/G                  HT/PER
                          (F)     (DEG/KT/KT) (MB)    (MI)  (FT/S)
SOUTHERN BUOY              66 68  130/ 12/ 14 1017.6S         2/ 4
WILMETTE HARBOR            63 56  280/  8/ 14   N/A           1/ 3
HARRISON CRIB              66     130/ 15/ 17   N/A
BURNHAM HARBOR             65     130/  5/  8   N/A
BURNS HARBOR               67     120/  7/ 11 1018.6F
MICHIGAN CITY              64      60/  8/  9   N/A
MICHIGAN CITY 6N           66 70  100/ 10/ 12   N/A           1
ST. JOSEPH                 65 71  160/ 12/ 14   N/A           1
$$

ILZ025>027-034>036-040-047-049-050-058-095>099-291700-
WEST-CENTRAL ILLINOIS

CITY           SKY/WX    TMP DP  RH WIND       PRES   REMARKS
QUINCY         SUNNY     77  65  66 SW10      30.00S
$$

ILZ028>032-037-038-041>044-048-051>054-059>061-291700-
CENTRAL ILLINOIS

CITY           SKY/WX    TMP DP  RH WIND       PRES   REMARKS
DECATUR        CLOUDY    75  65  70 SW9       30.05R
PEORIA         PTSUNNY   78  65  63 SW9       30.02R HX  80
SPRINGFIELD    CLOUDY    77  66  68 S10       30.02S
TAYLORVILLE    NOT AVBL
$$

ILZ033-039-045-046-055>057-062-063-291700-
EAST-CENTRAL ILLINOIS

CITY           SKY/WX    TMP DP  RH WIND       PRES   REMARKS
CHAMPAIGN      CLOUDY    77  66  68 S6        30.06R
MATTOON        CLOUDY    76  65  68 S7        30.06R
$$

ILZ079-100>102-291700-
SOUTHWEST ILLINOIS

CITY           SKY/WX    TMP DP  RH WIND       PRES   REMARKS
ALTON          CLOUDY    75  66  73 S10       30.03S
BELLEVILLE     CLOUDY    76  70  80 VRB5      30.03S
CAHOKIA*       CLOUDY    78  64  61 SW9       30.04S HX  80
$$

ILZ064>066-069>071-074>076-080>082-084>086-088>090-092>094-291700-
SOUTH-CENTRAL ILLINOIS

CITY           SKY/WX    TMP DP  RH WIND       PRES   REMARKS
CARBONDALE     CLOUDY    78  69  73 S7        30.07R HX  80
MARION         CLOUDY    77  70  78 S8        30.09R
MT. VERNON     CLOUDY    79  66  65 S9        30.08S HX  81
$$

ILZ067-068-072-073-078-083-087-091-291700-
SOUTHEAST ILLINOIS

CITY           SKY/WX    TMP DP  RH WIND       PRES   REMARKS
LAWRENCEVILLE  PTSUNNY   80  68  66 S10       30.09R HX  83
$$

ABBREVIATIONS USED IN REMARKS
   TC - TEMPERATURE IN CELSIUS
  WCI - WIND CHILL INDEX
   HX - HEAT INDEX
  VSB - VISIBILITY
$$




USA.gov is the U.S. government's official web portal to all federal, state and local government web resources and services.